Theta_e
333 333 325 321 306 306 302 305 312 311 312 314 319 315 313 318 316 311 331 339 339 340 344 344 345 346 344 343 343 344 346 345 346 344 342 341 341 341 340 339 338 336 336 336 335 336 335 335 334
328 330 323 316 303 297 300 308 308 312 314 316 317 315 314 314 325 326 328 340 340 342 342 342 343 345 343 343 344 344 345 344 343 342 341 339 339 339 339 337 338 336 335 335 335 336 335 334 333
329 329 316 311 304 295 298 306 309 314 315 315 314 317 316 317 326 328 334 338 340 340 343 341 343 343 342 343 343 344 345 344 342 341 340 338 336 337 336 336 336 337 335 334 333 334 335 334 333
324 323 315 304 303 299 300 305 313 313 313 315 315 313 321 327 328 333 335 337 338 339 341 340 343 343 342 343 343 342 344 344 342 340 339 337 335 335 335 335 335 335 333 332 333 335 335 334 333
324 320 308 305 303 301 303 310 312 312 313 313 312 311 317 325 335 335 334 335 337 339 340 339 341 342 342 343 342 342 342 344 344 342 341 338 336 335 333 333 334 333 332 331 333 333 333 334 333
315 317 306 303 303 304 305 309 309 309 310 312 309 309 318 328 332 334 334 334 337 339 340 338 336 339 341 341 342 341 341 343 343 342 343 340 339 337 335 333 331 331 332 332 331 332 331 334 334
314 310 306 306 305 305 306 309 304 308 307 309 311 306 319 324 332 335 334 334 336 339 338 339 337 337 335 337 338 339 339 337 339 341 341 339 338 337 337 336 334 332 332 331 332 331 330 330 331
315 311 306 306 304 305 309 308 309 306 306 314 313 304 311 323 333 335 334 334 336 337 338 337 335 336 335 335 332 334 334 334 335 335 336 334 332 331 331 332 334 334 333 332 331 330 330 329 329
318 307 304 308 307 306 310 308 309 311 309 309 313 315 320 331 333 331 330 331 332 335 336 337 335 334 332 333 331 329 331 331 331 329 328 327 328 328 327 328 331 334 335 333 331 330 329 329 327
309 306 308 311 312 308 310 309 308 306 306 308 313 320 327 329 329 328 327 327 329 331 334 335 334 333 333 333 329 330 333 330 330 329 326 329 329 328 329 325 327 329 330 333 333 332 330 326 321
309 303 310 312 312 314 311 309 311 308 305 309 311 317 323 325 326 327 327 328 329 331 332 334 334 333 332 331 330 327 328 329 330 330 329 328 328 325 325 324 322 322 321 323 328 328 327 324 324
301 307 309 310 313 312 309 312 309 309 309 314 314 321 322 324 324 325 325 327 328 330 331 333 334 333 332 332 331 330 329 327 326 326 328 327 326 325 325 324 324 323 323 322 322 322 323 324 324
302 304 305 308 311 311 313 309 309 309 313 315 318 321 320 322 323 325 328 329 329 329 332 332 334 333 332 332 331 331 330 330 329 328 327 327 324 323 324 323 322 322 322 321 320 320 320 320 321
303 304 304 305 307 309 309 308 309 310 314 313 315 316 320 320 322 323 324 326 327 329 329 332 331 333 333 330 331 329 330 330 330 329 329 327 325 323 323 322 321 321 321 320 320 319 319 319 320
304 299 300 302 304 304 308 304 305 311 313 312 312 313 316 320 321 323 323 324 327 328 330 331 331 332 332 332 332 332 330 329 328 328 329 329 328 326 324 323 322 322 322 322 321 320 320 319 320
299 298 291 299 302 304 306 293 303 310 311 311 312 311 314 316 320 322 323 326 327 328 328 330 333 331 331 331 331 331 331 329 328 329 328 328 328 328 326 325 324 325 324 323 322 321 320 319 319
297 289 292 296 301 302 303 296 302 305 305 308 310 312 312 314 317 320 322 322 324 328 329 329 330 330 330 331 330 331 331 330 329 330 327 328 328 327 325 325 325 326 324 323 323 322 320 319 319
290 291 293 293 297 299 297 298 302 303 302 301 301 303 309 312 314 319 322 322 323 324 327 329 330 330 331 331 330 330 331 331 329 329 328 327 327 326 327 326 325 326 324 324 323 323 322 322 322
294 292 291 296 298 295 295 295 298 301 301 300 301 301 302 303 312 317 320 322 323 323 324 326 328 330 330 330 329 329 328 329 329 329 329 328 327 327 325 325 325 325 325 326 325 324 322 322 322
294 292 290 295 298 295 294 294 297 300 299 300 301 301 302 303 304 306 312 318 321 323 325 326 327 328 330 330 330 331 330 330 330 330 329 329 328 327 326 325 325 325 326 325 325 323 321 320 321
293 291 290 289 293 295 292 290 293 297 300 302 302 303 303 304 305 307 306 308 314 317 321 325 326 327 329 329 329 329 328 328 327 328 328 329 329 328 327 326 325 325 326 325 324 324 321 318 319
290 296 295 292 290 283 290 280 288 291 294 297 300 300 303 305 306 308 307 307 309 311 314 317 323 326 327 328 327 326 325 324 326 327 328 328 329 328 328 327 326 327 327 325 324 324 322 320 317
292 297 295 294 290 287 287 282 286 292 290 291 296 299 300 303 303 305 306 306 308 309 312 314 316 318 322 326 327 325 323 324 324 323 325 327 328 328 328 327 326 327 327 325 324 323 322 321 318
298 294 294 292 290 281 286 284 283 288 290 293 295 297 298 300 301 302 304 306 305 307 309 310 313 313 314 318 323 324 323 322 320 321 322 325 325 327 327 328 328 326 325 324 323 324 322 321 320
295 290 281 279 279 277 285 284 286 291 293 293 294 295 296 299 299 300 300 301 303 305 306 308 310 310 312 312 317 322 323 323 322 320 321 322 322 323 325 325 324 324 324 323 325 323 321 318 317
292 290 281 275 278 277 284 279 284 292 294 294 296 296 296 296 299 300 300 301 302 303 305 306 307 309 310 310 313 318 320 321 321 321 321 321 322 322 322 323 322 322 323 322 321 317 316 315 314
291 287 292 284 278 276 280 284 290 293 293 294 294 294 295 297 299 299 300 301 302 302 305 305 305 306 309 309 312 315 317 318 318 320 320 320 320 321 321 321 321 320 316 314 313 311 310 309 309
293 295 285 285 274 271 278 278 281 287 290 292 292 293 295 297 297 299 300 301 304 305 305 306 307 307 309 310 309 312 314 317 318 318 318 319 318 317 316 313 310 308 307 306 305 304 303 302 301
290 288 289 289 284 277 275 278 288 290 291 291 292 293 294 295 297 298 299 301 302 303 303 305 306 308 310 312 313 314 315 316 317 316 316 314 309 308 307 306 305 303 302 301 299 299 299 297 297
293 290 290 283 281 284 283 281 292 292 292 293 293 294 293 295 296 297 299 300 301 301 301 303 304 305 308 311 311 312 313 313 312 311 310 307 304 304 303 302 301 300 298 297 297 296 296 295 294
Wind_Speed
15 8 4 2 2 4 3 4 10 8 5 3 9 8 6 11 6 6 6 16 17 16 14 12 14 13 13 12 11 9 10 13 13 14 14 12 12 12 11 10 10 11 12 11 11 11 11 11 11
8 6 2 4 3 4 4 10 6 5 10 6 7 2 2 6 7 9 6 18 16 15 13 12 13 14 13 11 9 10 10 11 12 12 11 12 11 10 10 9 9 9 10 10 9 10 9 9 9
8 7 2 4 3 4 4 5 7 11 6 5 5 2 5 4 9 11 11 14 17 13 12 13 12 13 12 11 8 7 10 11 11 10 10 10 9 10 8 8 7 7 8 8 7 7 7 7 7
2 3 5 3 4 5 5 3 14 9 3 5 4 9 6 6 10 9 11 13 16 12 12 12 12 12 10 9 7 5 9 10 11 11 10 9 8 7 7 6 5 6 6 6 6 5 4 5 5
3 4 5 5 8 5 2 5 7 8 9 8 2 6 7 3 11 14 10 11 16 11 12 10 11 11 10 9 8 5 6 11 12 11 11 10 8 6 5 5 5 4 4 4 5 4 3 2 3
4 2 5 4 9 7 5 3 1 4 6 8 1 3 5 9 9 11 9 9 13 14 11 9 8 9 9 9 8 5 3 9 9 11 12 12 11 9 5 5 4 4 2 1 3 2 2 2 2
5 4 6 5 7 5 6 6 2 2 7 4 3 1 6 7 9 10 8 8 10 14 10 10 8 7 7 8 7 6 6 7 5 7 9 9 10 8 9 4 3 3 3 3 3 2 1 1 1
3 4 8 4 2 3 7 7 7 4 2 3 2 3 7 9 11 9 8 11 11 10 11 9 9 8 6 6 7 6 6 8 6 3 8 7 9 6 5 7 7 6 5 4 4 4 4 4 4
4 4 6 4 1 5 9 6 2 5 4 1 4 5 6 15 11 8 8 9 7 6 9 7 9 9 8 7 7 6 5 7 7 5 6 6 5 7 8 8 9 7 8 7 6 6 5 5 6
2 3 9 7 8 4 8 7 10 4 5 5 5 6 10 13 11 10 9 10 10 9 9 10 8 9 9 8 8 6 6 5 5 5 6 4 6 6 6 7 9 7 6 8 8 8 7 6 5
3 6 10 13 6 7 1 6 5 7 6 8 12 12 10 8 10 11 10 10 12 13 6 5 7 7 7 5 6 3 3 4 4 7 6 6 4 4 3 3 3 4 6 4 6 6 4 7 5
7 9 8 8 7 5 5 2 5 6 4 5 4 18 14 13 13 12 9 8 7 12 12 10 8 5 6 5 5 5 4 5 4 5 7 4 3 3 3 3 5 5 4 6 5 4 6 6 5
5 7 9 5 3 5 7 6 7 6 10 5 8 11 13 10 10 9 13 11 12 12 14 14 10 7 5 5 5 4 4 5 5 5 6 5 4 4 4 4 4 4 4 4 4 4 4 5 6
4 5 8 5 5 6 4 7 7 5 9 5 9 6 10 11 12 8 10 12 12 14 12 15 15 14 9 5 4 3 4 4 5 5 6 8 5 5 5 5 4 4 4 4 5 5 4 5 5
4 6 6 6 6 8 2 8 11 7 8 7 10 9 9 10 10 13 11 9 9 8 11 13 16 15 16 13 10 7 5 4 4 4 5 5 7 6 6 5 5 5 5 6 4 4 3 3 4
4 5 3 7 11 5 6 8 10 11 9 10 8 9 9 10 10 10 11 13 10 9 10 10 12 15 16 14 12 10 10 6 6 6 6 7 6 6 6 5 5 5 4 4 4 4 4 5 5
6 4 8 7 12 6 8 5 9 11 6 10 9 9 9 9 10 9 10 10 11 12 12 11 11 15 15 15 12 12 11 7 8 8 6 10 11 8 5 4 5 6 5 4 4 4 4 4 4
6 7 7 7 3 5 6 9 12 9 4 7 6 8 8 8 11 9 10 10 10 10 12 13 12 14 15 11 10 9 9 8 6 8 8 8 7 11 9 7 5 5 4 4 4 5 4 4 3
8 6 6 5 5 1 7 9 13 11 9 9 8 8 9 9 7 10 11 11 10 9 9 13 15 16 12 11 12 11 11 9 8 8 10 11 9 10 11 9 7 5 5 7 5 5 5 3 2
9 9 7 8 7 2 5 13 14 12 8 10 11 9 10 8 8 7 7 9 10 11 12 12 14 14 13 10 10 10 10 9 9 8 8 9 11 10 11 10 9 6 5 6 6 5 3 2 3
8 9 7 7 2 5 6 13 14 13 19 15 12 13 8 10 11 10 9 9 9 10 11 12 14 15 16 16 9 7 5 6 6 7 7 9 9 10 12 11 10 8 5 6 6 6 6 4 3
8 6 10 6 5 3 5 9 6 8 8 13 19 11 16 16 13 13 10 8 12 12 8 9 10 11 12 14 12 14 11 11 10 9 8 8 10 9 12 11 12 10 8 9 7 5 5 4 5
4 5 4 1 3 5 6 6 7 11 8 7 9 13 12 11 11 13 12 9 7 5 7 7 9 8 8 9 14 10 11 8 6 4 8 10 10 12 11 12 12 11 8 8 8 5 7 6 4
3 4 2 1 3 7 9 8 8 10 10 8 8 9 8 9 10 9 7 3 2 3 3 5 6 8 9 9 11 14 13 11 6 6 8 8 6 8 10 13 12 8 7 7 8 9 7 7 6
6 6 1 2 3 8 5 10 15 8 11 7 7 6 5 6 3 5 6 5 5 6 6 4 6 8 8 8 10 15 16 14 13 7 5 7 6 5 9 8 8 6 6 7 7 6 7 5 4
11 11 5 7 5 3 4 10 7 2 4 4 6 6 4 0 3 5 8 8 7 7 7 7 8 8 8 8 9 7 8 5 6 7 5 6 7 7 8 9 7 7 7 6 6 4 4 5 5
6 12 10 6 2 2 6 7 7 6 5 8 9 4 4 6 6 7 6 6 7 5 6 6 7 8 8 8 7 7 6 7 7 8 7 6 5 6 9 10 9 7 7 7 7 4 5 5 5
7 5 5 4 4 5 6 7 8 2 7 9 5 6 8 5 4 4 6 6 2 2 3 3 5 6 6 6 6 6 8 8 7 6 7 7 6 7 8 8 7 7 7 7 7 5 5 6 4
6 8 3 2 6 4 3 5 2 7 6 8 7 4 4 5 5 4 4 3 1 2 2 3 3 3 3 3 2 3 4 5 5 5 5 6 6 7 7 7 7 7 7 7 6 6 7 6 5
12 12 15 7 8 7 12 11 3 6 5 6 3 0 1 4 5 4 3 3 3 4 4 4 4 4 4 3 3 2 2 3 5 5 5 5 6 5 7 7 7 7 7 6 7 7 5 6 6
Wind_Direction
307 176 223 281 281 225 110 85 93 92 117 53 60 33 29 42 18 102 168 115 129 132 132 139 135 133 129 128 123 118 112 103 104 106 103 97 97 90 91 86 88 84 84 85 86 84 79 78 74
297 289 258 265 242 278 97 110 134 129 85 95 98 200 296 87 78 127 85 130 130 129 147 138 137 136 135 134 134 130 125 115 108 104 96 98 97 91 87 92 93 88 84 83 90 89 86 83 81
214 241 257 218 229 18 42 128 128 84 114 157 122 14 12 87 108 151 138 130 133 134 140 130 138 135 136 140 143 134 131 123 114 108 107 103 99 97 94 87 109 101 100 89 92 98 97 90 83
299 191 259 256 67 63 11 190 109 118 73 352 24 103 78 6 146 118 153 139 128 133 126 138 137 136 141 138 151 140 146 142 134 129 122 116 116 109 105 98 108 128 116 101 93 80 94 100 87
194 259 257 232 89 98 351 49 111 154 159 160 163 145 98 79 93 130 158 149 132 126 131 140 144 142 148 151 158 164 180 164 150 144 134 133 132 132 129 123 117 91 148 134 112 84 67 129 123
289 249 285 316 100 103 107 64 149 170 133 81 116 284 92 127 127 147 161 151 130 124 135 135 141 145 152 158 164 173 208 140 154 157 155 159 151 149 149 152 149 144 116 100 132 116 57 22 170
330 329 291 335 107 142 132 150 206 197 107 161 37 15 121 152 143 149 166 133 139 132 127 143 157 156 155 159 167 182 199 169 122 163 165 168 150 148 156 159 166 179 175 191 185 197 230 319 1
292 295 287 257 313 121 120 162 164 179 105 77 41 349 160 156 138 153 168 136 118 134 142 164 159 159 164 163 179 186 192 133 121 104 164 162 148 159 171 172 186 187 201 209 214 225 235 246 254
301 277 282 284 27 100 129 157 255 29 116 130 146 59 104 132 142 163 165 152 123 146 148 182 161 167 170 163 177 180 166 150 142 156 163 164 174 173 180 193 205 195 189 206 213 225 241 254 262
260 289 276 23 8 25 149 208 151 164 204 165 120 78 119 138 157 173 177 163 156 182 184 180 178 172 170 175 151 180 177 178 186 188 182 210 228 181 171 171 171 194 199 214 214 222 223 238 247
246 238 291 322 22 29 314 204 195 185 204 192 183 158 164 163 175 182 188 184 174 169 233 165 189 182 166 179 152 178 177 186 195 205 188 206 238 175 164 152 186 198 218 220 218 215 213 224 232
264 268 277 308 32 356 290 238 258 216 235 40 185 165 166 175 187 189 191 188 177 163 186 200 215 247 183 170 160 182 177 184 196 196 196 187 216 205 186 202 194 194 192 211 227 209 209 225 251
213 268 292 298 9 299 296 296 261 238 232 119 80 133 167 186 193 193 185 197 187 195 185 185 194 218 232 201 176 187 191 176 190 192 189 184 197 208 208 219 208 200 200 208 222 232 232 234 239
32 313 288 277 300 261 246 267 252 237 254 218 148 185 175 187 188 203 197 199 191 186 189 174 186 203 211 224 208 200 199 214 191 196 189 188 193 202 202 212 214 214 208 216 211 223 230 233 230
305 298 258 236 245 270 24 259 250 216 293 248 178 185 202 193 197 190 204 204 198 191 185 183 179 191 207 208 211 208 226 202 217 206 231 207 195 210 200 206 212 209 211 213 223 237 243 260 264
221 221 244 206 201 199 161 264 246 220 210 235 235 202 206 202 195 194 187 194 193 195 191 184 176 182 203 210 212 214 219 205 210 218 212 228 229 208 215 212 215 212 205 199 196 219 232 232 233
199 264 218 268 178 174 178 269 254 258 250 227 232 229 207 195 197 197 192 185 191 188 188 194 181 177 190 210 212 215 217 216 199 218 196 200 207 215 230 237 212 209 204 205 204 224 210 229 254
223 215 240 256 158 215 241 245 273 290 308 277 273 275 263 215 199 185 189 196 188 189 190 190 188 187 186 192 204 213 218 222 202 202 202 207 188 191 209 233 248 210 198 202 210 215 236 224 253
295 300 296 235 80 97 245 254 263 259 259 245 236 249 263 266 242 188 186 190 193 196 187 192 192 192 188 192 194 203 210 211 213 212 201 197 190 185 194 219 232 221 200 218 220 237 231 244 184
258 280 270 289 114 100 287 276 275 270 245 229 248 248 231 247 269 245 215 190 188 198 201 203 198 194 196 201 206 205 207 211 210 211 208 198 191 186 191 202 219 229 207 199 199 208 191 193 173
248 240 258 258 318 197 262 272 239 245 240 243 238 238 248 246 241 245 228 219 207 206 210 208 205 202 198 201 196 205 206 211 203 205 215 209 192 187 190 199 214 215 206 209 210 199 186 207 203
262 242 248 286 343 255 47 295 305 298 266 233 237 236 240 242 241 244 249 229 214 220 208 212 213 212 205 197 198 200 207 211 215 203 209 207 201 196 194 199 210 208 199 200 208 191 184 172 215
239 7 3 206 240 302 273 274 253 223 275 272 206 220 231 235 241 250 242 248 258 221 218 218 214 203 207 202 200 201 210 214 215 196 189 195 192 197 194 200 213 221 207 190 188 203 183 192 196
112 141 88 251 226 254 201 219 229 234 225 237 230 226 232 239 232 237 236 222 283 298 224 184 199 216 208 204 196 202 204 209 198 206 203 193 174 182 190 196 206 194 197 184 189 203 184 188 202
162 176 170 208 184 239 200 204 246 302 291 266 272 279 301 327 2 360 346 324 276 260 270 262 225 234 237 236 215 201 205 206 210 203 175 166 168 181 197 189 188 190 184 183 190 184 182 177 193
197 204 179 209 194 289 118 229 247 114 325 291 279 270 241 291 343 293 272 256 255 246 237 232 236 240 236 231 222 219 216 210 204 204 176 182 183 183 175 184 178 185 181 177 170 156 162 173 182
173 221 240 315 107 55 244 276 301 254 237 276 282 301 262 238 260 268 284 279 245 242 257 249 255 249 229 239 209 205 202 197 203 204 182 182 174 178 177 175 177 177 160 151 146 158 171 164 179
179 157 185 218 214 237 254 255 247 210 244 241 331 20 6 342 265 295 295 281 313 323 298 265 274 266 251 238 217 198 202 198 193 191 183 175 162 148 149 155 150 147 145 151 155 158 162 163 189
216 229 234 300 210 207 269 241 91 107 99 77 38 27 354 348 336 302 283 284 344 318 282 242 231 268 303 291 262 192 185 165 155 161 162 155 141 150 152 149 149 153 155 159 156 166 169 177 189
228 226 207 217 209 232 252 247 109 127 114 106 113 246 322 318 294 285 296 293 250 239 238 235 216 202 192 181 151 200 155 149 148 153 157 150 146 143 147 148 149 155 158 158 164 173 173 184 194